DW1735 Weather Reports


Display with metric or nautical units.
time (UTC)temp
F
wind
direction
speed
MPH
gust
MPH
rain 1hr
in
rain 24hr
in
rain mn
in
humidity
%
barometer
mb
20260503232551 79 318 8.0 14.0 0.00 0.00 0.00 43 1010.0
20260503232048 79 331 6.0 14.0 0.00 0.00 0.00 44 1010.0
20260503231552 79 339 8.0 14.0 0.00 0.00 0.00 42 1010.0
20260503231050 79 335 8.0 14.0 0.00 0.00 0.00 43 1010.1
20260503230550 79 322 9.0 14.0 0.00 0.00 0.00 43 1010.2
20260503230059 79 344 7.0 13.0 0.00 0.00 0.00 45 1010.2
20260503225549 78 341 8.0 14.0 0.00 0.00 0.00 45 1010.3
20260503225048 78 358 8.0 14.0 0.00 0.00 0.00 44 1010.4
20260503224559 78 345 8.0 12.0 0.00 0.00 0.00 45 1010.4
20260503224050 79 304 7.0 12.0 0.00 0.00 0.00 45 1010.6
20260503223548 79 331 6.0 13.0 0.00 0.00 0.00 44 1010.6
20260503223056 78 327 8.0 13.0 0.00 0.00 0.00 43 1010.7
20260503222548 79 329 8.0 13.0 0.00 0.00 0.00 42 1010.8
20260503222047 78 329 7.0 13.0 0.00 0.00 0.00 43 1010.9
20260503221552 78 318 7.0 11.0 0.00 0.00 0.00 43 1010.9
20260503221047 78 343 5.0 11.0 0.00 0.00 0.00 44 1010.9
20260503220548 78 332 6.0 15.0 0.00 0.00 0.00 44 1011.0
20260503220054 78 321 7.0 15.0 0.00 0.00 0.00 45 1010.9
20260503215547 78 296 6.0 12.0 0.00 0.00 0.00 46 1011.0
20260503215048 77 313 7.0 14.0 0.00 0.00 0.00 46 1011.1
20260503214551 77 320 8.0 14.0 0.00 0.00 0.00 45 1011.1
20260503214048 77 347 9.0 15.0 0.00 0.00 0.00 45 1011.3
20260503213548 77 279 9.0 15.0 0.00 0.00 0.00 44 1011.3
20260503213052 77 305 9.0 15.0 0.00 0.00 0.00 45 1011.3
20260503212548 77 324 6.0 15.0 0.00 0.00 0.00 48 1011.3
20260503212047 77 355 7.0 15.0 0.00 0.00 0.00 45 1011.3
20260503211552 76 325 7.0 15.0 0.00 0.00 0.00 47 1011.4
20260503211047 76 332 9.0 17.0 0.00 0.00 0.00 48 1011.4
20260503210548 75 321 9.0 17.0 0.00 0.00 0.00 47 1011.4
20260503210051 75 318 9.0 17.0 0.00 0.00 0.00 47 1011.4
20260503205548 76 316 6.0 12.0 0.00 0.00 0.00 48 1011.5
20260503205051 76 300 6.0 16.0 0.00 0.00 0.00 49 1011.6
20260503204554 75 343 9.0 16.0 0.00 0.00 0.00 48 1011.7
20260503204048 75 313 12.0 16.0 0.00 0.00 0.00 48 1011.6
20260503203552 76 315 8.0 14.0 0.00 0.00 0.00 47 1011.8
20260503203101 76 323 8.0 14.0 0.00 0.00 0.00 48 1011.7
20260503202548 76 314 6.0 14.0 0.00 0.00 0.00 49 1011.6
20260503202051 76 297 8.0 14.0 0.00 0.00 0.00 49 1011.8
20260503201556 75 318 10.0 16.0 0.00 0.00 0.00 49 1011.8
20260503201051 75 312 9.0 16.0 0.00 0.00 0.00 51 1012.0
20260503200548 74 320 9.0 14.0 0.00 0.00 0.00 52 1012.0
20260503200053 74 311 6.0 12.0 0.00 0.00 0.00 52 1012.0
20260503195548 74 289 6.0 12.0 0.00 0.00 0.00 52 1012.2
20260503195050 74 328 6.0 11.0 0.00 0.00 0.00 53 1012.2
20260503194558 75 322 5.0 11.0 0.00 0.00 0.00 53 1012.3
20260503194049 74 283 5.0 13.0 0.00 0.00 0.00 54 1012.3
20260503193548 73 304 7.0 13.0 0.00 0.00 0.00 54 1012.5
20260503193056 73 316 5.0 11.0 0.00 0.00 0.00 55 1012.6
20260503192548 73 314 5.0 11.0 0.00 0.00 0.00 54 1012.5
20260503192048 73 308 6.0 12.0 0.00 0.00 0.00 53 1012.6
20260503191555 73 3 8.0 12.0 0.00 0.00 0.00 54 1012.7
20260503191048 73 326 8.0 12.0 0.00 0.00 0.00 54 1012.8
20260503190547 73 319 7.0 12.0 0.00 0.00 0.00 53 1012.8
20260503190056 73 325 7.0 12.0 0.00 0.00 0.00 54 1012.9
20260503185548 73 310 5.0 11.0 0.00 0.00 0.00 55 1012.9
20260503185048 73 305 7.0 11.0 0.00 0.00 0.00 56 1013.0
20260503184611 73 326 4.0 10.0 0.00 0.00 0.00 55 1013.1
20260503184049 73 336 4.0 9.0 0.00 0.00 0.00 57 1013.2
20260503183549 73 356 2.0 8.0 0.00 0.00 0.00 56 1013.2
20260503183100 73 346 2.0 8.0 0.00 0.00 0.00 57 1013.2
20260503182548 72 287 3.0 10.0 0.00 0.00 0.00 57 1013.2
20260503182048 73 351 5.0 11.0 0.00 0.00 0.00 56 1013.2
20260503181554 73 316 5.0 11.0 0.00 0.00 0.00 59 1013.3
20260503181048 73 21 3.0 10.0 0.00 0.00 0.00 56 1013.3
20260503180548 72 8 5.0 10.0 0.00 0.00 0.00 55 1013.3
20260503180057 72 37 6.0 13.0 0.00 0.00 0.00 58 1013.4
20260503175548 72 295 4.0 13.0 0.00 0.00 0.00 57 1013.3
20260503175047 72 35 6.0 12.0 0.00 0.00 0.00 57 1013.4
20260503174049 70 337 2.0 6.0 0.00 0.00 0.00 62 1013.4
20260503173550 68 254 2.0 4.0 0.00 0.00 0.00 63 1013.4
20260503173052 68 285 2.0 4.0 0.00 0.00 0.00 63 1013.5
20260503172548 69 251 1.0 11.0 0.00 0.00 0.00 61 1013.5
20260503172050 69 1 2.0 11.0 0.00 0.00 0.00 62 1013.5
20260503171610 69 18 2.0 8.0 0.00 0.00 0.00 59 1013.6
20260503171048 69 37 2.0 8.0 0.00 0.00 0.00 62 1013.5
20260503170548 69 16 4.0 9.0 0.00 0.00 0.00 60 1013.5
20260503150548 61 23 4.0 10.0 0.00 0.00 0.00 68 1013.7
20260503131047 55 68 3.0 7.0 0.00 0.00 0.00 79 1013.6
20260503130548 55 54 3.0 6.0 0.00 0.00 0.00 80 1013.5
20260503110548 58 89 2.0 5.0 0.00 0.00 0.00 71 1013.7
20260503081550 62 70 4.0 9.0 0.00 0.00 0.00 59 1014.0
20260503081048 62 74 3.0 9.0 0.00 0.00 0.00 58 1013.9
20260503080548 62 61 5.0 9.0 0.00 0.00 0.00 59 1013.9
20260503072548 63 47 4.0 10.0 0.00 0.00 0.00 57 1013.9
20260503072050 63 72 3.0 10.0 0.00 0.00 0.00 56 1013.8
20260503071606 63 52 4.0 9.0 0.00 0.00 0.00 56 1013.8
20260503071047 63 75 4.0 9.0 0.00 0.00 0.00 56 1013.8
20260503070549 63 63 4.0 9.0 0.00 0.00 0.00 56 1013.8
20260503060103 63 73 3.0 7.0 0.00 0.00 0.00 58 1013.7
20260503055048 63 47 3.0 9.0 0.00 0.00 0.00 59 1013.6
20260503054600 63 53 2.0 9.0 0.00 0.00 0.00 59 1013.6
20260503054048 63 49 3.0 9.0 0.00 0.00 0.00 59 1013.6
20260503053548 63 17 4.0 6.0 0.00 0.00 0.00 60 1013.6
20260503053055 63 22 3.0 7.0 0.00 0.00 0.00 61 1013.7
20260503052548 63 57 3.0 7.0 0.00 0.00 0.00 61 1013.6
20260503052047 63 45 3.0 7.0 0.00 0.00 0.00 61 1013.6
20260503051559 63 34 3.0 7.0 0.00 0.00 0.00 61 1013.6
20260503051048 63 57 4.0 7.0 0.00 0.00 0.00 61 1013.5
20260503050548 64 56 4.0 7.0 0.00 0.00 0.00 62 1013.5
20260503050058 64 73 4.0 7.0 0.00 0.00 0.00 61 1013.5
20260503045550 64 41 4.0 8.0 0.00 0.00 0.00 62 1013.5
20260503045049 64 49 3.0 8.0 0.00 0.00 0.00 62 1013.5
20260503044604 64 47 3.0 7.0 0.00 0.00 0.00 62 1013.4
20260503044048 64 62 2.0 7.0 0.00 0.00 0.00 62 1013.4
20260503043551 64 26 2.0 8.0 0.00 0.00 0.00 62 1013.2
20260503043104 64 43 2.0 8.0 0.00 0.00 0.00 63 1013.3
20260503042551 64 52 3.0 6.0 0.00 0.00 0.00 63 1013.2
20260503042048 64 63 4.0 6.0 0.00 0.00 0.00 63 1013.2
20260503041605 64 55 3.0 5.0 0.00 0.00 0.00 63 1013.2
20260503041049 64 54 2.0 5.0 0.00 0.00 0.00 64 1013.1
20260503040548 65 62 2.0 5.0 0.00 0.00 0.00 63 1013.1
20260503040053 65 31 2.0 5.0 0.00 0.00 0.00 63 1013.1
20260503035549 65 11 2.0 6.0 0.00 0.00 0.00 63 1012.9
20260503035048 65 18 3.0 6.0 0.00 0.00 0.00 62 1012.9
20260503034555 65 43 2.0 7.0 0.00 0.00 0.00 62 1012.8
20260503034049 66 45 2.0 10.0 0.00 0.00 0.00 62 1012.8
20260503033548 66 16 2.0 10.0 0.00 0.00 0.00 60 1012.7
20260503033050 67 14 2.0 9.0 0.00 0.00 0.00 60 1012.6
20260503032548 67 6 3.0 9.0 0.00 0.00 0.00 60 1012.6
20260503032049 67 2 4.0 10.0 0.00 0.00 0.00 59 1012.6
20260503031551 68 360 4.0 10.0 0.00 0.00 0.00 58 1012.6
20260503031049 68 12 3.0 7.0 0.00 0.00 0.00 57 1012.5
20260503030549 69 21 3.0 9.0 0.00 0.00 0.00 57 1012.5
20260503030052 69 78 3.0 9.0 0.00 0.00 0.00 57 1012.4
20260503025548 69 27 4.0 10.0 0.00 0.00 0.00 56 1012.4
20260503025048 70 27 3.0 10.0 0.00 0.00 0.00 56 1012.4
20260503024555 70 37 3.0 9.0 0.00 0.00 0.00 56 1012.4
20260503024048 70 338 2.0 9.0 0.00 0.00 0.00 55 1012.3
20260503023550 71 11 4.0 9.0 0.00 0.00 0.00 55 1012.2
20260503023104 71 9 3.0 11.0 0.00 0.00 0.00 54 1012.1
20260503022547 71 27 5.0 11.0 0.00 0.00 0.00 53 1012.2
20260503022049 71 31 4.0 10.0 0.00 0.00 0.00 53 1012.2
20260503021556 71 16 4.0 12.0 0.00 0.00 0.00 53 1012.1
20260503021049 72 18 4.0 12.0 0.00 0.00 0.00 53 1012.1
20260503020548 72 360 6.0 12.0 0.00 0.00 0.00 52 1012.1
20260503020057 72 20 4.0 17.0 0.00 0.00 0.00 52 1012.2
20260503015548 73 358 6.0 17.0 0.00 0.00 0.00 52 1012.1
20260503015050 73 11 5.0 15.0 0.00 0.00 0.00 51 1012.1
20260503014550 73 18 5.0 12.0 0.00 0.00 0.00 51 1012.2
20260503014048 74 345 4.0 11.0 0.00 0.00 0.00 52 1012.2
20260503013552 74 27 5.0 11.0 0.00 0.00 0.00 52 1012.2
20260503013049 74 10 6.0 10.0 0.00 0.00 0.00 52 1012.2
20260503012547 74 337 6.0 14.0 0.00 0.00 0.00 52 1012.2
20260503012049 74 23 6.0 14.0 0.00 0.00 0.00 51 1012.3
20260503011622 74 352 5.0 13.0 0.00 0.00 0.00 50 1012.3
20260503011050 74 303 6.0 13.0 0.00 0.00 0.00 50 1012.3
20260503010548 74 353 6.0 13.0 0.00 0.00 0.00 49 1012.3
20260503010058 75 27 6.0 13.0 0.00 0.00 0.00 49 1012.2
20260503005552 74 17 5.0 15.0 0.00 0.00 0.00 49 1012.3
20260503005049 74 360 8.0 15.0 0.00 0.00 0.00 49 1012.5
20260503004548 75 353 5.0 15.0 0.00 0.00 0.00 50 1012.5
20260503004049 74 340 6.0 15.0 0.00 0.00 0.00 49 1012.5
20260503003548 75 18 6.0 15.0 0.00 0.00 0.00 50 1012.5
20260503003054 75 3 5.0 15.0 0.00 0.00 0.00 49 1012.6
20260503002548 74 344 6.0 16.0 0.00 0.00 0.00 50 1012.5
20260503002048 74 340 9.0 16.0 0.00 0.00 0.00 49 1012.7
20260503001549 74 10 6.0 16.0 0.00 0.00 0.00 52 1012.7
20260503001047 74 42 7.0 16.0 0.00 0.00 0.00 50 1012.7
20260503000548 74 17 8.0 15.0 0.00 0.00 0.00 50 1012.8
20260502235548 74 23 7.0 17.0 0.00 0.00 0.00 53 1012.8
20260502235048 74 18 7.0 15.0 0.00 0.00 0.00 52 1012.9
20260502234600 74 30 7.0 17.0 0.00 0.00 0.00 51 1012.9
20260502234049 74 341 7.0 17.0 0.00 0.00 0.00 50 1013.0
20260502233549 74 330 8.0 17.0 0.00 0.00 0.00 50 1013.2
20260502233052 74 18 8.0 17.0 0.00 0.00 0.00 50 1013.3